Other Surface Observations
Issued by NWS

Current Version | Previous Version | Text Only | Print | Product List | Glossary On
Versions: 1 2 3 4 5 6 7 8 9 10 11 12 13 14 15 16 17 18 19 20 21 22 23 24 25 26 27 28 29 30 31 32 33 34 35 36 37 38 39 40 41 42 43 44 45 46 47 48 49 50
000
SXUS52 KTAE 252118
OSOTAE
OSOTAE
North Florida/South Alabama/Southwest Georgia Weather Roundup
National Weather Service Tallahassee Florida
500 PM EDT SAT APR 25 2015

Note: "fair" indicates few or no clouds below 12,000 feet with no
significant weather and/or obstructions to visibility.

!FLZ017-115-028-034-025-252200
...North Florida...

CITY           SKY/WX    TMP DP  RH WIND       PRES   REMARKS
TALLAHASSEE    PTSUNNY   86  73  65 SW17G24   29.74F HX  93
APALACHICOLA   PTSUNNY   85  75  72 W14       29.78F HX  93
PERRY          CLOUDY    81  74  81 S17G25    29.79F
CROSS CITY       N/A     82  73  74 SW13G24   29.79F
JACKSONVILLE   PTSUNNY   78  72  81 W8        29.76F
$$

!FLZ112-006-005-002-011-252200
...Florida Panhandle...

CITY           SKY/WX    TMP DP  RH WIND       PRES   REMARKS
MARIANNA       CLOUDY    83  75  77 SW15G24   29.72F HX  90
BONIFAY        MOCLDY    81  73  76 SW13      29.73F
PANAMA CITY NW PTSUNNY   81  74  79 SW17G23   29.74F
TYNDALL AFB    MOSUNNY   81  76  84 SW13      29.76F
TYND DRONE APT MOCLDY    80  76  90 SW8       29.76F
DE FUNIAK SPR  MOCLDY    79  74  83 SW8       29.75S
EGLIN AFB      PTSUNNY   80  74  84 SW10G18   29.75F
DESTIN         CLOUDY    79  75  87 VRB5      29.76S
HURLBURT       PTSUNNY   77  72  83 SW10      29.76S
CRESTVIEW      CLOUDY    82  73  74 SW10      29.75F
PENSACOLA      TSTM      71  69  93 NW26G61   29.85R SQUALL
$$

!ALZ063-066-252200
...South Alabama...

CITY           SKY/WX    TMP DP  RH WIND       PRES   REMARKS
DOTHAN         CLOUDY    83  74  74 SW13G23   29.73F
OZARK CAIRNS   CLOUDY    83  71  67 SW12      29.69F
FT RUCKER HELI CLOUDY    84  72  67 SW13      29.68F
RUCKER HELI 3  NOT AVBL
RUCKER HELI 2  FAIR      82  76  81 S9G23     29.68F
FLORALA APT    CLOUDY    81  73  76 SW8       29.74F
ANDALUSIA      CLOUDY    85  71  63 W8        29.73S HX  90
TROY           TSTM      72  64  76 NW6       29.72R
EUFALA         TSTM      79  75  89 CALM      29.67F FOG
MOBILE         LGT RAIN  69  69 100 NW8G18    29.83F
$$

!GAZ120>161-252200
...Southwest and South Central Georgia...

CITY           SKY/WX    TMP DP  RH WIND       PRES   REMARKS
THOMASVILLE    FAIR      82  75  78 SW13G21   29.74F
BAINBRIDGE     PTSUNNY   86  75  70 SW12      29.72F HX  95
MOODY AFB      MOSUNNY   82  70  67 S17       29.73F
VALDOSTA       PTSUNNY   79  70  74 VRB7      29.77S
MOULTRIE       MOSUNNY   82  77  83 SW12G17   29.73F HX  91
BLAKELY        CLOUDY    84  73  70 SW10G16   29.70F HX  91
ALBANY         CLOUDY    83  72  69 SW9G20    29.73F
TIFTON         CLOUDY    83  69  62 SW9       29.71F
FITZGERALD     CLOUDY    85  69  58 W9        29.73F
CORDELE        MOCLDY    86  71  60 SW14G22   29.71F HX  91
AMERICUS       FAIR      81  72  74 SW14      29.71F
HOMERVILLE     PTSUNNY   82  73  74 SW10G21   29.76F
$$

!GMZ750-755-770-775-252200
...Coastal and Buoy Obs...

STATION/POSITION TIME  TEMP    WIND        PRES    VSBY  WAVE
                       AIR SEA DIR/SP/G                  HT/PER
                 (UTC) (F)     (DEG/KT/KT) (MB)    (MI)  (FT/S)
KEATON BEACH     2100   78     220/ 17/ 20 1008.9F
CEDAR KEY        2100   79     220/ 10/ 13 1010.0F
C TOWER          2100   76     210/ 15/ 16 1008.1F
APALACHICOLA BUO 2050   79 78  210/ 12/ 14 1009.3F         3/ 5
PANAMA CITY BUOY 2050   78 76  210/ 14/ 16 1008.5F         3/ 6
MOBILE BUOY      2050   78 78  280/  8/  8 1008.6F         4/ 6
ORANGE BCH AL BU 2050   77 75  260/ 16/ 19 1008.3R         4/ 6
$$



USA.gov is the U.S. government's official web portal to all federal, state and local government web resources and services.